#timestamp,LO_Frequency,Hit,StdDev 
1513828815.8,286046999.9,N
1513828835.6,286047002.4,N
1513828855.4,286047003.5,N
1513828875.3,286047000.3,N
1513828895.1,286046998.4,N
1513828915.8,286046999.8,N
1513828935.7,286047002.7,N
1513828955.5,286047001.4,N
1513828975.4,286047002.5,N
1513828995.2,286047001.3,N
1513829015.0,286047001.8,N
1513829015.9,286047001.8,N
1513829035.8,286047002.3,N
1513829055.6,286047000.9,N
1513829075.5,286046999.2,N
1513829095.3,286046997.7,N
1513829115.1,286046995.8,N
1513829135.9,286046997.7,N
1513829155.7,286046997.1,N
1513829175.6,286046999.6,N
1513829195.4,286046997.2,N
1513829215.2,286047001.2,N
1513829235.1,286047000.2,N
1513829236.0,286047000.2,N
1513829255.8,286047001.8,N
1513829275.6,286047003.5,N
1513829295.5,286047004.3,N
1513829315.3,286047002.0,N
1513829335.2,286047003.8,N
1513829355.9,286047004.0,N
1513829375.7,286047001.9,N
1513829395.6,286047001.7,N
1513829415.4,286047002.4,N
1513829435.3,286046999.8,N
1513829455.1,286047001.9,N
1513829456.0,286047001.9,N
1513829475.8,286047000.5,N
1513829495.7,286046999.9,N
1513829515.5,286047000.5,N
1513829535.3,286047000.2,N
1513829555.2,286047000.6,N
1513829575.0,286047002.0,N
1513829575.9,286047002.0,N
1513829595.8,286047002.8,N
1513829615.6,286047000.0,N
1513829635.4,286047002.7,N
1513829655.3,286047001.8,N
1513829675.1,286047003.4,N
1513829695.9,286047005.2,Y
1513829715.7,286047001.4,P
1513829735.5,286047001.3,P
1513829755.4,286047004.2,P
1513829775.2,286047002.7,N
1513829795.0,286046999.7,N
1513829795.9,286046999.7,N
1513829815.8,286047001.9,N
1513829835.6,286047003.8,N
1513829855.5,286047001.8,N
1513829875.3,286047001.8,N
1513829895.1,286047004.3,Y
1513829915.9,286047001.7,P
1513829935.7,286047001.5,P
1513829955.6,286047002.3,P
1513829975.4,286047002.5,Y
1513829995.2,286047000.5,P
1513830015.1,286047000.8,N
1513830016.0,286047000.8,N
1513830035.8,286047001.0,N
1513830055.7,286046998.5,Y
1513830075.5,286046998.9,P
1513830095.3,286047001.2,N
1513830115.2,286046998.1,N
1513830135.9,286047000.8,N
1513830155.7,286046998.3,N
1513830175.6,286047000.4,N
1513830195.4,286046999.3,N
1513830215.3,286046996.5,Y
1513830235.1,286046997.0,P
1513830236.0,286046997.0,N
1513830255.8,286046995.5,P
1513830275.7,286046997.7,N
1513830295.5,286046997.4,N
1513830315.4,286046995.0,Y
1513830335.2,286047000.6,P
1513830355.0,286046996.6,N
1513830355.9,286046996.6,N
1513830375.8,286046997.4,N
1513830395.6,286046996.6,N
1513830415.4,286046999.5,N
1513830435.3,286046995.3,Y
1513830455.1,286047000.3,P
1513830475.9,286046998.4,N
1513830495.7,286046998.1,N
1513830515.5,286047000.5,N
1513830535.4,286046998.2,N
1513830555.2,286046999.3,N
1513830575.1,286047002.5,N
1513830576.0,286047002.5,N
1513830595.8,286047001.9,N
1513830615.6,286047000.6,N
1513830635.5,286047000.3,N
1513830655.3,286047000.6,N
1513830675.1,286047002.8,N
1513830695.9,286047001.3,N
1513830715.7,286047001.7,N
1513830735.6,286047003.3,N
1513830755.4,286047002.1,N
1513830775.2,286047004.4,N
1513830795.1,286047003.6,N
1513830796.0,286047003.6,N
1513830815.8,286047001.6,N
1513830835.6,286047001.4,N
1513830855.5,286047001.9,N
1513830875.3,286047001.9,N
1513830895.2,286047001.9,N
1513830915.9,286047002.4,N
1513830935.7,286047004.3,N
1513830955.6,286047004.4,N
1513830975.4,286047001.9,N
1513830995.3,286047005.5,Y
1513831015.1,286047003.4,P
1513831016.0,286047003.4,P
1513831035.8,286047001.9,N
1513831055.7,286047004.4,Y
1513831075.5,286047002.7,P
1513831095.4,286047011.9,P
1513831115.2,286047001.7,N
1513831135.0,286047002.6,N
1513831135.9,286047002.6,N
1513831155.8,286047003.5,N
1513831175.6,286047001.5,N
1513831195.4,286047002.1,N
1513831215.3,286047002.6,N
1513831235.1,286047004.2,N
1513831255.9,286047004.0,N
1513831275.7,286047004.3,N
1513831295.5,286047003.9,N
1513831315.4,286047002.2,N
1513831335.2,286046999.8,N
1513831355.0,286047000.2,N
1513831356.0,286047000.2,N
1513831375.8,286047000.5,N
1513831395.6,286046998.5,N
1513831415.5,286046998.9,N
1513831435.3,286047001.2,N
1513831455.1,286046999.2,N
1513831475.9,286046997.3,N
1513831495.7,286046997.0,N
1513831515.6,286046997.1,N
1513831535.4,286046997.3,N
1513831555.2,286046995.5,N
1513831575.1,286046997.9,N
1513831576.0,286046997.9,N
1513831595.8,286046999.6,N
1513831615.6,286046996.9,N
1513831635.5,286046995.3,N
1513831655.3,286046996.9,N
1513831675.2,286046997.2,N
1513831695.9,286046996.5,N
1513831715.7,286046997.7,N
1513831735.6,286046995.6,N
1513831755.4,286046997.5,N
1513831775.3,286046999.5,N
1513831795.1,286046996.5,N
1513831796.0,286046996.5,N
1513831815.8,286046996.5,N
1513831835.7,286046995.6,N
1513831855.5,286046994.5,Y
1513831875.3,286046997.4,P
1513831895.2,286046995.4,P
1513831915.0,286046997.3,N
1513831915.9,286046997.3,N
1513831935.8,286046999.4,N
1513831955.6,286046998.3,N
1513831975.4,286047000.8,N
1513831995.3,286046997.2,N
1513832015.1,286046998.8,N
1513832035.9,286047000.6,N
1513832055.7,286047000.5,N
1513832075.5,286047000.3,N
1513832095.4,286046998.6,N
1513832115.2,286047003.2,N
1513832135.0,286047001.5,N
1513832135.9,286047001.5,N
1513832155.8,286047002.5,N
1513832175.6,286047002.6,N
1513832195.5,286046999.8,N
1513832215.3,286047001.0,N
1513832235.1,286046998.1,N
1513832255.9,286046999.2,N
1513832275.7,286046995.2,N
1513832295.5,286046995.3,N
1513832315.4,286046994.9,N
1513832335.2,286046999.2,N
1513832355.1,286046998.2,N
1513832356.0,286046998.2,N
1513832375.8,286046999.9,N
1513832395.6,286047000.3,N
